Content
SEND FEEDBACK

Daily
Averages
Monthly
Summary
United States of America

DECATUR, INDIANA


Home > North America > United States > Indiana
Elevation: 780 feet     Latitude: 40 51N     Longitude: 084 56W

WEATHER
 
SELECT A DAY
Number of Records: 207,892;   Date Range: 1/1/95 - 7/7/14
 
SHARE

PRINT THIS DATA

[ ← Previous Day ]
WEATHER ALMANAC - JANUARY 31, 2013
[ Next Day → ]
[ °C ]   °F
Weather ElementAverageHighLow
Temperature20.2 °F30.2 °F (12:09 am)12 °F (11:54 pm)
Dewpoint14.4 °F26.6 °F (12:09 am)5 °F (9:54 pm)
Humidity78.5 %93 % (4:09 am)63 % (3:46 pm)
Barometer29.78 in30.05 in (11:54 pm)29.46 in (12:09 am)
Wind Speed23.7 mph29.9 mph (5:49 am)
Wind Gust41.4 mph (1:54 am)
Weather ElementAverage
Visibility6 mi
Wind DirectionW (268.3 °)

Weather ElementTotal
Precipitation---
Heating Degree Days43.9 (Base 65)
Averaged from 52 records on January 31, 2013
WEATHER CONDITIONS BREAKOUT
WIND DIRECTION BREAKOUT
WEATHER BY HOUR - JANUARY 31, 2013
[ °C ]   °F
Local TimeTemperatureDewpointHumidityBarometerVisibilityWind DirectionWind SpeedGust SpeedPrecipitationEventsConditions
12:09 AM30.2 °F26.6 °F86 %29.46 in4.0 miWest (270°)24.2 mph34.5 mph0.00 inSnowLight Snow
12:54 AM28.0 °F23.0 °F81 %29.52 in8.0 miWest (270°)27.6 mph40.3 mph0.00 inSnowLight Snow
1:54 AM26.1 °F19.0 °F75 %29.55 in10.0 miWest (280°)26.5 mph41.4 mph0.00 inSnowLight Snow
2:30 AM26.6 °F21.2 °F80 %29.57 in2.0 miWest (270°)28.8 mph35.7 mph0.00 inSnowLight Snow
2:41 AM24.8 °F21.2 °F86 %29.58 in1.8 miWest (260°)26.5 mph39.1 mph0.00 inSnowLight Snow
2:46 AM24.8 °F19.4 °F80 %29.58 in4.0 miWest (270°)28.8 mph40.3 mph0.00 inSnowLight Snow
2:54 AM25.0 °F18.0 °F75 %29.60 in6.0 miWest (270°)28.8 mph36.8 mph0.00 inSnowLight Snow
3:07 AM24.8 °F17.6 °F74 %29.59 in9.0 miWest (270°)26.5 mph40.3 mph0.00 inSnowLight Snow
3:54 AM23.0 °F19.9 °F88 %29.63 in2.0 miWSW (250°)25.3 mph36.8 mph0.00 inSnowLight Snow
4:09 AM21.2 °F19.4 °F93 %29.62 in1.5 miWest (270°)24.2 mph32.2 mph0.00 inSnowLight Snow
4:21 AM21.2 °F17.6 °F86 %29.63 in3.0 miWest (270°)28.8 mph38.0 mph0.00 inSnowLight Snow
4:38 AM21.2 °F17.6 °F86 %29.63 in5.0 miWest (270°)28.8 mph35.7 mph0.00 inSnowLight Snow
4:54 AM21.9 °F17.1 °F82 %29.66 in2.5 miWest (270°)25.3 mph36.8 mph0.00 inSnowLight Snow
5:12 AM21.2 °F17.6 °F86 %29.65 in3.0 miWest (270°)27.6 mph40.3 mph0.00 inSnowLight Snow
5:49 AM21.2 °F17.6 °F86 %29.67 in1.2 miWSW (250°)29.9 mph39.1 mph0.00 inSnowLight Snow
5:54 AM21.0 °F17.1 °F85 %29.69 in1.2 miWest (260°)26.5 mph38.0 mph0.00 inSnowLight Snow
6:02 AM19.4 °F14.0 °F80 %29.67 in4.0 miWest (260°)29.9 mph38.0 mph0.00 inSnowLight Snow
6:54 AM19.0 °F14.0 °F81 %29.73 in5.0 miWest (260°)24.2 mph33.4 mph0.00 inSnowLight Snow
7:13 AM19.4 °F10.4 °F68 %29.70 in10.0 miWest (270°)24.2 mph33.4 mph0.00 inSnowLight Snow
7:54 AM19.0 °F12.0 °F74 %29.75 in5.0 miWest (270°)23.0 mph33.4 mph0.00 inSnowLight Snow
8:18 AM17.6 °F12.2 °F79 %29.74 in2.5 miWest (260°)25.3 mph36.8 mph0.00 inSnowLight Snow
8:28 AM17.6 °F12.2 °F79 %29.74 in6.0 miWSW (250°)26.5 mph33.4 mph0.00 inSnowLight Snow
8:51 AM17.6 °F12.2 °F79 %29.75 in9.0 miWest (260°)24.2 mph29.9 mph0.00 inSnowLight Snow
8:54 AM18.0 °F12.0 °F78 %29.78 in9.0 miWest (260°)27.6 mph35.7 mph0.00 inSnowLight Snow
9:54 AM19.0 °F12.0 °F74 %29.81 in8.0 miWest (270°)26.5 mph35.7 mph0.00 inSnowLight Snow
10:51 AM19.4 °F15.8 °F86 %29.81 in2.5 miWest (260°)17.3 mph0.00 inSnowLight Snow
10:54 AM19.9 °F16.0 °F85 %29.84 in2.5 miWest (260°)16.1 mph0.00 inSnowLight Snow
11:35 AM21.2 °F17.6 °F86 %29.81 in1.2 miWest (270°)18.4 mph21.9 mph0.00 inSnowLight Snow
11:48 AM21.2 °F17.6 °F86 %29.81 in4.0 miWest (260°)20.7 mph25.3 mph0.00 inSnowLight Snow
11:54 AM21.9 °F18.0 °F85 %29.84 in5.0 miWest (260°)18.4 mph25.3 mph0.00 inSnowLight Snow
12:38 PM23.0 °F15.8 °F74 %29.81 in9.0 miWSW (250°)24.2 mph29.9 mph0.00 inSnowLight Snow
12:54 PM23.0 °F15.1 °F72 %29.84 in9.0 miWest (260°)23.0 mph33.4 mph0.00 inSnowLight Snow
1:54 PM23.0 °F14.0 °F68 %29.85 in9.0 miWest (260°)29.9 mph35.7 mph0.00 inSnowLight Snow
2:19 PM21.2 °F15.8 °F80 %29.82 in6.0 miWest (260°)24.2 mph32.2 mph0.00 inSnowLight Snow
2:44 PM23.0 °F15.8 °F74 %29.82 in7.0 miWest (270°)21.9 mph33.4 mph0.00 inSnowLight Snow
2:54 PM21.9 °F15.1 °F75 %29.86 in8.0 miWest (270°)27.6 mph36.8 mph0.00 inSnowLight Snow
3:16 PM21.2 °F12.2 °F68 %29.83 in9.0 miWest (270°)23.0 mph39.1 mph0.00 inMostly Cloudy
3:46 PM21.2 °F10.4 °F63 %29.84 in10.0 miWest (260°)24.2 mph39.1 mph0.00 inMostly Cloudy
3:54 PM21.9 °F10.9 °F63 %29.87 in10.0 miWest (260°)27.6 mph35.7 mph0.00 inMostly Cloudy
4:54 PM19.9 °F12.0 °F71 %29.89 in8.0 miWest (270°)24.2 mph28.8 mph0.00 inSnowLight Snow
5:54 PM19.0 °F12.0 °F74 %29.91 in10.0 miWNW (290°)18.4 mph29.9 mph0.00 inOvercast
6:54 PM18.0 °F10.0 °F71 %29.94 in7.0 miWest (280°)21.9 mph34.5 mph0.00 inSnowLight Snow
7:13 PM15.8 °F12.2 °F86 %29.91 in2.0 miWNW (290°)18.4 mph23.0 mph0.00 inSnowLight Snow
7:16 PM15.8 °F12.2 °F86 %29.91 in1.5 miWNW (290°)17.3 mph0.00 inSnowLight Snow
7:23 PM17.6 °F12.2 °F79 %29.92 in5.0 miWest (280°)18.4 mph0.00 inSnowLight Snow
7:54 PM16.0 °F12.0 °F84 %29.97 in5.0 miWest (280°)17.3 mph21.9 mph0.00 inSnowLight Snow
8:54 PM15.1 °F7.0 °F70 %29.99 in9.0 miWest (270°)19.6 mph0.00 inSnowLight Snow
9:54 PM14.0 °F5.0 °F67 %30.00 in10.0 miWNW (290°)16.1 mph26.5 mph0.00 inScattered Clouds
10:22 PM12.2 °F6.8 °F79 %29.96 in10.0 miWest (280°)20.7 mph26.5 mphMostly Cloudy
10:54 PM12.9 °F7.0 °F77 %30.02 in10.0 miWest (280°)20.7 mph26.5 mphOvercast
11:25 PM12.2 °F5.0 °F73 %29.99 in10.0 miWest (280°)18.4 mph32.2 mphOvercast
11:54 PM12.0 °F6.1 °F77 %30.05 in7.0 miWest (270°)19.6 mph28.8 mph0.00 inOvercast
Hourly data recorded from KFWA, located miles away from Decatur, Indiana







STORIES FROM OUR PARTNERS